TimeMST,TemperatureF,Dew PointF,Humidity,Sea Level PressureIn,VisibilityMPH,Wind Direction,Wind SpeedMPH,Gust SpeedMPH,PrecipitationIn,Events,Conditions,WindDirDegrees,DateUTC
12:54 AM,39.0,18.0,43,30.13,10.0,Calm,Calm,-,N/A,,Clear,0,2013-12-16 07:54:00
1:54 AM,39.9,18.0,41,30.11,10.0,Calm,Calm,-,N/A,,Clear,0,2013-12-16 08:54:00
2:54 AM,43.0,17.1,35,30.08,10.0,ENE,8.1,-,N/A,,Clear,60,2013-12-16 09:54:00
3:54 AM,39.0,18.0,43,30.09,10.0,ENE,5.8,-,N/A,,Clear,60,2013-12-16 10:54:00
4:54 AM,42.1,18.0,38,30.09,10.0,ENE,5.8,-,N/A,,Clear,60,2013-12-16 11:54:00
5:54 AM,39.9,18.0,41,30.12,10.0,NE,9.2,-,N/A,,Clear,50,2013-12-16 12:54:00
6:54 AM,39.0,18.0,43,30.15,10.0,ENE,5.8,-,N/A,,Clear,70,2013-12-16 13:54:00
7:54 AM,42.1,19.0,40,30.16,10.0,East,5.8,-,N/A,,Clear,80,2013-12-16 14:54:00
8:54 AM,55.0,17.1,23,30.16,10.0,NE,5.8,-,N/A,,Clear,40,2013-12-16 15:54:00
9:54 AM,62.1,17.1,18,30.17,10.0,NNE,3.5,-,N/A,,Clear,20,2013-12-16 16:54:00
10:54 AM,66.0,17.1,15,30.16,10.0,Calm,Calm,-,N/A,,Clear,0,2013-12-16 17:54:00
11:54 AM,68.0,16.0,14,30.14,10.0,SW,5.8,-,N/A,,Clear,230,2013-12-16 18:54:00
12:54 PM,72.0,17.1,12,30.10,10.0,Calm,Calm,-,N/A,,Clear,0,2013-12-16 19:54:00
1:54 PM,75.0,17.1,11,30.07,10.0,Variable,4.6,-,N/A,,Clear,0,2013-12-16 20:54:00
2:54 PM,75.9,16.0,10,30.06,10.0,Calm,Calm,-,N/A,,Clear,0,2013-12-16 21:54:00
3:54 PM,75.9,18.0,11,30.06,10.0,North,6.9,-,N/A,,Clear,350,2013-12-16 22:54:00
4:54 PM,70.0,12.0,11,30.08,10.0,East,3.5,-,N/A,,Clear,80,2013-12-16 23:54:00
5:54 PM,66.0,10.0,11,30.09,10.0,ENE,9.2,-,N/A,,Clear,70,2013-12-17 00:54:00
6:54 PM,60.1,14.0,16,30.13,10.0,NE,6.9,-,N/A,,Clear,50,2013-12-17 01:54:00
7:54 PM,61.0,12.0,15,30.13,10.0,Calm,Calm,-,N/A,,Clear,0,2013-12-17 02:54:00
8:54 PM,57.9,14.0,18,30.12,10.0,NE,8.1,-,N/A,,Clear,40,2013-12-17 03:54:00
9:54 PM,55.0,15.1,21,30.12,10.0,East,6.9,-,N/A,,Clear,90,2013-12-17 04:54:00
10:54 PM,48.9,16.0,27,30.13,10.0,Calm,Calm,-,N/A,,Clear,0,2013-12-17 05:54:00
11:54 PM,46.0,16.0,30,30.14,10.0,East,5.8,-,N/A,,Clear,90,2013-12-17 06:54:00